Preview of NWS' New Version of Forecast
This preview is not operational and should not be used for support decisions.

Regional Weather Roundup (RWR)

Issued by National Weather Service (NWS)

                            
000
ASUS42 KTBW 211618
RWRFL 
FLORIDA REGIONAL WEATHER ROUNDUP
NATIONAL WEATHER SERVICE TAMPA BAY RUSKIN FL
1200 PM EDT SUN JUL 21 2019

NOTE: "FAIR" INDICATES FEW OR NO CLOUDS BELOW 12,000 FEET WITH NO
SIGNIFICANT WEATHER AND/OR OBSTRUCTIONS TO VISIBILITY.

FLZ001>010-012>015-112-114-115-211700-
PANHANDLE FLORIDA
  
CITY           SKY/WX    TMP DP  RH WIND       PRES   REMARKS
PENSACOLA      RAIN      82  76  81 SE12      30.08R                  
PENSACOLA NAS  HVY RAIN  75  75 100 SW17      30.10R VSB 3/4          
MILTON NAS     PTSUNNY   84  73  69 VRB3        N/A                   
CRESTVIEW      LGT RAIN  86  71  60 N9        30.09S                  
DUKE FIELD     FAIR      86  70  58 S3        30.07S                  
VALPARAISO     FAIR      86  74  67 S9        30.07S                  
MARY ESTHER    MOSUNNY   86  74  67 SE6       30.06R HX  95           
PANAMA CITY    PTSUNNY   86  71  60 NW5       30.07S                  
TYNDALL AFB    FAIR      87  74  63 SW8       30.06F HX  95           
APALACHICOLA   FAIR      85  73  67 VRB3      30.08S                  

STATION/POSITION SKY/WX   TEMP    WIND        PRES    WAVE   SWELL
                          AIR SEA DIR/SP/G            HT/PER HT/PER
                          (F)     (DEG/KT/KT) (MB)    (FT/S) (FT/S)
30.1N   87.6W              76 85  120/ 10/ 12 1019.0R   1/ 3
29.2N   88.2W              73 84  180/ 14/ 19 1019.9R   2/ 4
28.8N   86.0W                 86   CALM  /  2 1018.7R   2/ 4   2/ 4
PANAMA CITY BEAC                  280/  1/  2   N/A
TOWER C                    83      20/  2/  2 1018.7S
28.5N   84.5W              77     120/ 10/ 17 1019.4R   2/ 5   2/ 5

$$
FLZ011-016>038-118-127-128-134-139-239-211700-
NORTH FLORIDA
  
CITY           SKY/WX    TMP DP  RH WIND       PRES   REMARKS
MARIANNA       FAIR      87  72  60 NW6       30.07F                  
TALLAHASSEE    FAIR      88  74  63 VRB3      30.07F HX  96           
PERRY          FAIR      87  74  63 CALM      30.08F HX  95           
LIVE OAK       MOSUNNY   86  73  66 CALM      30.08F                  
CROSS CITY     FAIR      87  74  64 W5        30.07F HX  95           
LAKE CITY      FAIR      84  72  65 SW5       30.09F                  
GAINESVILLE    FAIR      85  72  65 S5        30.11S                  
WILLISTON      FAIR      87  74  65 E3        30.08F HX  95           
PALATKA        FAIR      90  75  62 W3        30.08F HX 100           
MAYPORT NAS    FAIR      88  75  65 E8        30.08F HX  97           
JACKSONVILLE   FAIR      89  74  60 VRB3      30.07F HX  98           
JAX NAS        FAIR      88  72  58 SE7       30.09S                  
JAX CECIL      PTSUNNY   95  73  49 VRB5      30.08F HX 105           
FERNANDINA BEA FAIR      88  74  62 S7        30.08F HX  97           
ST AUGUSTINE   PTSUNNY   88  77  69 E10       30.09S HX 100           
PALM COAST     MOSUNNY   88  73  62 CALM      30.08S HX  96           

STATION/POSITION SKY/WX   TEMP    WIND        PRES    WAVE   SWELL
                          AIR SEA DIR/SP/G            HT/PER HT/PER
                          (F)     (DEG/KT/KT) (MB)    (FT/S) (FT/S)
SHELL POINT      NOT AVBL
KEATON BEACH               82     250/  5/  6 1018.6F
CEDAR KEY                  84     160/  3/  4 1018.8R
FERNANDINA                 91 85  260/  5/  7 1019.6F
30.7N   81.3W                 84                N/A     2/ 8
MAYPORT                    86 82  270/  3/  5 1019.3S
31.4N   80.9W              82 84  270/  6/  8 1019.0R   2/ 8   2/ 8
ST AUGUSTINE               81 78  120/ 10/ 10 1018.9F

$$
FLZ040-043>046-052-053-057-058-063-144-211700-
INTERIOR CENTRAL FLORIDA
  
CITY           SKY/WX    TMP DP  RH WIND       PRES   REMARKS
OCALA          PTSUNNY   89  75  63 S7        30.09S HX  99           
LEESBURG       FAIR      89  73  59 SE3       30.08F HX  97           
SANFORD        FAIR      88  72  58 VRB3      30.07S                  
ORLANDO EXEC   FAIR      90  71  53 VRB5      30.08S HX  96           
ORLANDO INTL   FAIR      89  72  56 VRB6      30.07F HX  96           
KISSIMMEE      FAIR      88  75  65 S8        30.09S HX  97           
WINTER HAVEN   PTSUNNY   87  74  64 S7        30.09R HX  95           
LAKELAND       PTSUNNY   88  73  62 E5        30.08S HX  96           
BARTOW         PTSUNNY   88  75  66 S6        30.07S HX  97           
SEBRING        FAIR      88  74  63 SE7       30.07F HX  97           
OKEECHOBEE     FAIR      88  73  62 SE5       30.06F HX  96           

$$
FLZ041-047-054-059-064-141-147-211700-
EAST CENTRAL FLORIDA
  
CITY           SKY/WX    TMP DP  RH WIND       PRES   REMARKS
ORMOND BEACH   MOSUNNY   86  77  74 E6        30.08S HX  97           
DAYTONA BEACH  FAIR      90  76  63 VRB6      30.08S HX 101           
DELAND         FAIR      88  72  58 S7        30.08S                  
NEW SMYRNA BEA MOSUNNY   88  77  70 E10       30.09S HX 100           
JFK SPACE CTR  MOSUNNY   89  66  47 S7        30.07S                  
TITUSVILLE     MOSUNNY   91  73  55 SE9       30.09R HX 100           
CAPE CANAVERAL MOSUNNY   89  54  30 SE8       30.07R                  
PATRICK AFB    FAIR      88  79  74 E8        30.08R HX 103           
MELBOURNE      FAIR      88  76  67 SE12      30.07S HX  99           
VERO BEACH     FAIR      89  75  63 SE14      30.08S HX  99           
FT PIERCE      FAIR      88  75  65 SE14      30.08R HX  97           
STUART         MOSUNNY   88  73  62 MISG      30.08S HX  96           

STATION/POSITION SKY/WX   TEMP    WIND        PRES    WAVE   SWELL
                          AIR SEA DIR/SP/G            HT/PER HT/PER
                          (F)     (DEG/KT/KT) (MB)    (FT/S) (FT/S)
28.5N   80.2W              84 84  140/  6/  8 1018.6S   2/ 7   2/ 7
28.9N   78.5W              85 86  130/  8/  8 1019.5    2/ 8   2/ 8
TRIDENT PIER               87 83  110/  6/  9 1019.9F
28.4N   80.5W                 84                N/A     1/ 8
27.5N   80.2W                 83                N/A     1/ 8

$$
FLZ050-056-061-142-242-148-248-149-249-151-251-155-255-
160-260-211700-
WEST CENTRAL FLORIDA
  
CITY           SKY/WX    TMP DP  RH WIND       PRES   REMARKS
CRYSTAL RIVER  FAIR      88  72  58 CALM      30.08S                  
INVERNESS      FAIR      88  79  74 S5        30.09S HX 102           
BROOKSVILLE    FAIR      88  74  63 VRB3      30.08F HX  96           
CLEARWATER AIR FAIR      88  75  66 SE6       30.07S HX  97           
ST PETE CLEARW FAIR      86  74  67 VRB7      30.07S                  
TAMPA INTL     FAIR      89  71  55 VRB7      30.08S HX  95           
TAMPA EXEC     FAIR      86  73  66 S3        30.08F                  
PLANT CITY     FAIR     N/A N/A N/A MISG      30.10S                  
MACDILL AFB    PTSUNNY   87  74  65 E7        30.08S HX  95           
PETER O KNIGHT CLOUDY    88  77  70 S3        30.08S HX 100           
ST PETERSBURG  FAIR      87  76  69 SE5       30.06R HX  97           
SARASOTA       FAIR      87  75  67 SE7       30.06R HX  96           
VENICE         FAIR      88  77  70 S7        30.08R HX 100           

STATION/POSITION SKY/WX   TEMP    WIND        PRES    WAVE   SWELL
                          AIR SEA DIR/SP/G            HT/PER HT/PER
                          (F)     (DEG/KT/KT) (MB)    (FT/S) (FT/S)
27.3N   84.2W                 87                N/A     2/ 4
CLEARWATER BEACH                  210/  2/  4   N/A
MIDDLE TAMPA BAY           86     160/  7/  8 1018.4S
VENICE                     84 86  180/  8/  9 1018.3R

$$
FLZ066-069-070-075>078-162-262-165-265-211700-
SOUTHWEST FLORIDA AND KEYS
  
CITY           SKY/WX    TMP DP  RH WIND       PRES   REMARKS
PUNTA GORDA    FAIR      88  73  61 SE6       30.09R HX  95           
FT MYERS       FAIR      88  72  58 S9        30.06R                  
SOUTHWEST INTL FAIR      89  72  56 SE8       30.06S HX  96           
MARCO ISLAND   FAIR      90  71  53 MISG      30.07R HX  96           
IMMOKALEE      FAIR      91  72  52 SE9G15    30.05R HX  98           
MARATHON       FAIR      90  76  63 VRB7      30.05R HX 101           
KEY WEST NAS   PTSUNNY   91  73  55 SE13      30.05R HX  99           
KEY WEST INTL  FAIR      86  75  69 SE14      30.05R HX  95           

STATION/POSITION SKY/WX   TEMP    WIND        PRES    WAVE   SWELL
                          AIR SEA DIR/SP/G            HT/PER HT/PER
                          (F)     (DEG/KT/KT) (MB)    (FT/S) (FT/S)
NAPLES                     87 86              1017.9R
26.0N   85.6W              85 85   90/  2/  4 1017.8R   2/ 5   2/ 5
DRY TORTUGAS               84     160/ 11/ 12 1018.0R
SAND KEY                   84     140/ 13/ 16 1016.7
SOMBRERO KEY               84     120/ 10/ 13 1018.1
LONG KEY                   85                 1017.1

$$
FLZ067-068-071>074-168-172>174-211700-
SOUTHEAST FLORIDA 
  
CITY           SKY/WX    TMP DP  RH WIND       PRES   REMARKS
W PALM BEACH   PTSUNNY   88  75  65 E14       30.08S HX  97           
BOCA RATON     MOSUNNY   90  75  62 SE12      30.07F HX 100           
FT LAUDER-EXEC FAIR      88  74  63 E10       30.06F HX  96           
FT LAUDERDALE  PTSUNNY   88  75  65 E12       30.06S HX  97           
POMPANO BEACH  FAIR      88  72  58 E12       30.07S                  
PEMBROKE PINES FAIR      90  74  59 E13G21    30.08S HX  99           
OPA LOCKA      FAIR      89  74  60 SE10      30.07S HX  98           
MIAMI          PTSUNNY   90  72  55 E10G18    30.07S HX  97           
WEST KENDALL   FAIR      89  75  63 E9        30.06S HX  99           
HOMESTEAD      FAIR      87  74  65 E8        30.06R HX  95           

STATION/POSITION SKY/WX   TEMP    WIND        PRES    WAVE   SWELL
                          AIR SEA DIR/SP/G            HT/PER HT/PER
                          (F)     (DEG/KT/KT) (MB)    (FT/S) (FT/S)
VIRGINIA KEY                       70/  6/  8   N/A
LAKE WORTH                 84 84  140/  9/ 10 1019.7F
FOWEY ROCKS                84 85  100/  8/  9 1018.6R
SETTLEMENT POINT           85      80/  8/  8 1018.9F

$$